Previsão horária em Al Karnak

Hoje, 20 Janeiro, Quarta-feira

Tempo Temperatura Precipitação Vento Pressão Humidade
00:00 +11°C° 0 mm 4 m/s 756 mmHg 51%
01:00 +10°C° 0 mm 4 m/s 756 mmHg 53%
02:00 +10°C° 0 mm 4 m/s 756 mmHg 54%
03:00 +10°C° 0 mm 4 m/s 756 mmHg 57%
04:00 +8°C° 0 mm 4 m/s 756 mmHg 61%
05:00 +9°C° 0 mm 3 m/s 757 mmHg 64%
06:00 +10°C° 0 mm 4 m/s 757 mmHg 65%
07:00 +9°C° 0 mm 5 m/s 757 mmHg 65%
08:00 +10°C° 0 mm 5 m/s 757 mmHg 62%
09:00 +12°C° 0 mm 7 m/s 758 mmHg 52%
10:00 +15°C° 0 mm 8 m/s 758 mmHg 42%
11:00 +17°C° 0 mm 9 m/s 759 mmHg 32%
12:00 +18°C° 0 mm 9 m/s 758 mmHg 30%
13:00 +19°C° 0 mm 9 m/s 757 mmHg 27%
14:00 +21°C° 0 mm 9 m/s 757 mmHg 25%
15:00 +20°C° 0 mm 8 m/s 757 mmHg 27%
16:00 +18°C° 0 mm 7 m/s 757 mmHg 28%
17:00 +17°C° 0 mm 6 m/s 758 mmHg 30%
18:00 +16°C° 0 mm 6 m/s 758 mmHg 33%
19:00 +14°C° 0 mm 6 m/s 758 mmHg 37%
20:00 +13°C° 0 mm 6 m/s 758 mmHg 40%
21:00 +12°C° 0 mm 5 m/s 759 mmHg 42%
22:00 +10°C° 0 mm 5 m/s 759 mmHg 44%
23:00 +10°C° 0 mm 4 m/s 759 mmHg 47%

Amanhã, 21 Janeiro, Quinta-feira

Tempo Temperatura Precipitação Vento Pressão Humidade
00:00 +8°C° 0 mm 4 m/s 759 mmHg 51%
01:00 +8°C° 0 mm 3 m/s 759 mmHg 55%
02:00 +8°C° 0 mm 3 m/s 759 mmHg 59%
03:00 +7°C° 0 mm 3 m/s 759 mmHg 62%
04:00 +7°C° 0 mm 3 m/s 759 mmHg 65%
05:00 +6°C° 0 mm 2 m/s 759 mmHg 69%
06:00 +7°C° 0 mm 2 m/s 759 mmHg 66%
07:00 +8°C° 0 mm 2 m/s 759 mmHg 63%
08:00 +9°C° 0 mm 2 m/s 759 mmHg 60%
09:00 +12°C° 0 mm 2 m/s 759 mmHg 52%
10:00 +14°C° 0 mm 2 m/s 759 mmHg 44%
11:00 +16°C° 0 mm 2 m/s 759 mmHg 35%
12:00 +17°C° 0 mm 2 m/s 759 mmHg 31%
13:00 +19°C° 0 mm 2 m/s 758 mmHg 27%
14:00 +20°C° 0 mm 2 m/s 757 mmHg 23%
15:00 +20°C° 0 mm 2 m/s 757 mmHg 23%
16:00 +19°C° 0 mm 2 m/s 757 mmHg 24%
17:00 +18°C° 0 mm 2 m/s 757 mmHg 24%
18:00 +16°C° 0 mm 2 m/s 757 mmHg 31%
19:00 +15°C° 0 mm 2 m/s 757 mmHg 38%
20:00 +12°C° 0 mm 3 m/s 758 mmHg 45%
21:00 +12°C° 0 mm 2 m/s 758 mmHg 50%
22:00 +10°C° 0 mm 2 m/s 758 mmHg 55%
23:00 +11°C° 0 mm 1 m/s 758 mmHg 59%

Depois de amanhã, 22 Janeiro, Sexta-feira

Tempo Temperatura Precipitação Vento Pressão Humidade
00:00 +10°C° 0 mm 1 m/s 757 mmHg 59%
01:00 +10°C° 0 mm 1 m/s 757 mmHg 58%
02:00 +10°C° 0 mm 1 m/s 757 mmHg 58%
03:00 +9°C° 0 mm 2 m/s 757 mmHg 57%
04:00 +8°C° 0 mm 2 m/s 756 mmHg 57%
05:00 +8°C° 0 mm 2 m/s 756 mmHg 56%
06:00 +9°C° 0 mm 2 m/s 757 mmHg 51%
07:00 +12°C° 0 mm 2 m/s 757 mmHg 46%
08:00 +13°C° 0 mm 2 m/s 757 mmHg 41%
09:00 +15°C° 0 mm 2 m/s 757 mmHg 38%
10:00 +17°C° 0 mm 3 m/s 756 mmHg 34%
11:00 +19°C° 0 mm 3 m/s 756 mmHg 30%
12:00 +20°C° 0 mm 3 m/s 755 mmHg 26%
13:00 +22°C° 0 mm 3 m/s 755 mmHg 22%
14:00 +24°C° 0 mm 3 m/s 754 mmHg 18%
15:00 +22°C° 0 mm 3 m/s 754 mmHg 17%
16:00 +21°C° 0 mm 3 m/s 754 mmHg 17%
17:00 +20°C° 0 mm 3 m/s 754 mmHg 16%
18:00 +18°C° 0 mm 3 m/s 754 mmHg 19%
19:00 +16°C° 0 mm 3 m/s 754 mmHg 22%
20:00 +14°C° 0 mm 2 m/s 755 mmHg 25%
21:00 +13°C° 0 mm 2 m/s 755 mmHg 31%
22:00 +12°C° 0 mm 2 m/s 755 mmHg 36%
23:00 +11°C° 0 mm 1 m/s 755 mmHg 42%

23 Janeiro, Sábado

Tempo Temperatura Precipitação Vento Pressão Humidade
00:00 +10°C° 0 mm 1 m/s 754 mmHg 41%
01:00 +10°C° 0 mm 1 m/s 754 mmHg 39%
02:00 +9°C° 0 mm 1 m/s 754 mmHg 38%
03:00 +9°C° 0 mm 1 m/s 754 mmHg 40%
04:00 +8°C° 0 mm 1 m/s 754 mmHg 42%
05:00 +8°C° 0 mm 1 m/s 754 mmHg 44%
06:00 +10°C° 0 mm 1 m/s 754 mmHg 39%
07:00 +11°C° 0 mm 1 m/s 754 mmHg 34%
08:00 +13°C° 0 mm 2 m/s 755 mmHg 29%
09:00 +15°C° 0 mm 2 m/s 754 mmHg 26%
10:00 +18°C° 0 mm 2 m/s 754 mmHg 22%
11:00 +20°C° 0 mm 2 m/s 754 mmHg 19%
12:00 +21°C° 0 mm 3 m/s 753 mmHg 16%
13:00 +24°C° 0 mm 3 m/s 753 mmHg 14%
14:00 +25°C° 0 mm 4 m/s 752 mmHg 12%
15:00 +23°C° 0 mm 4 m/s 752 mmHg 12%
16:00 +22°C° 0 mm 4 m/s 752 mmHg 12%
17:00 +21°C° 0 mm 4 m/s 752 mmHg 13%
18:00 +19°C° 0 mm 4 m/s 753 mmHg 15%
19:00 +17°C° 0 mm 4 m/s 753 mmHg 17%
20:00 +14°C° 0 mm 4 m/s 754 mmHg 19%
21:00 +12°C° 0 mm 3 m/s 754 mmHg 23%
22:00 +12°C° 0 mm 2 m/s 754 mmHg 27%
23:00 +10°C° 0 mm 2 m/s 754 mmHg 31%

24 Janeiro, Domingo

Tempo Temperatura Precipitação Vento Pressão Humidade
00:00 +9°C° 0 mm 2 m/s 753 mmHg 34%
01:00 +10°C° 0 mm 1 m/s 753 mmHg 37%
02:00 +9°C° 0 mm 1 m/s 753 mmHg 40%
03:00 +9°C° 0 mm 1 m/s 753 mmHg 42%
04:00 +7°C° 0 mm 2 m/s 753 mmHg 44%
05:00 +7°C° 0 mm 2 m/s 753 mmHg 46%
06:00 +9°C° 0 mm 2 m/s 754 mmHg 43%
07:00 +10°C° 0 mm 2 m/s 754 mmHg 39%
08:00 +12°C° 0 mm 2 m/s 754 mmHg 36%
09:00 +15°C° 0 mm 2 m/s 754 mmHg 30%
10:00 +17°C° 0 mm 2 m/s 754 mmHg 24%
11:00 +20°C° 0 mm 2 m/s 754 mmHg 18%
12:00 +21°C° 0 mm 3 m/s 754 mmHg 16%
13:00 +24°C° 0 mm 3 m/s 753 mmHg 13%
14:00 +25°C° 0 mm 4 m/s 753 mmHg 11%
15:00 +23°C° 0 mm 4 m/s 752 mmHg 12%
16:00 +22°C° 0 mm 4 m/s 752 mmHg 13%
17:00 +21°C° 0 mm 4 m/s 752 mmHg 14%
18:00 +19°C° 0 mm 4 m/s 753 mmHg 19%
19:00 +17°C° 0 mm 4 m/s 753 mmHg 23%
20:00 +14°C° 0 mm 4 m/s 754 mmHg 27%
21:00 +13°C° 0 mm 4 m/s 754 mmHg 32%
22:00 +12°C° 0 mm 3 m/s 754 mmHg 38%
23:00 +12°C° 0 mm 2 m/s 753 mmHg 43%

25 Janeiro, Segunda-feira

Tempo Temperatura Precipitação Vento Pressão Humidade
00:00 +10°C° 0 mm 2 m/s 753 mmHg 46%
01:00 +9°C° 0 mm 2 m/s 753 mmHg 49%
02:00 +9°C° 0 mm 2 m/s 753 mmHg 52%
03:00 +8°C° 0 mm 2 m/s 753 mmHg 53%
04:00 +8°C° 0 mm 2 m/s 753 mmHg 55%
05:00 +7°C° 0 mm 2 m/s 753 mmHg 56%
06:00 +9°C° 0 mm 2 m/s 754 mmHg 51%
07:00 +10°C° 0 mm 2 m/s 754 mmHg 47%
08:00 +12°C° 0 mm 2 m/s 755 mmHg 42%
09:00 +15°C° 0 mm 2 m/s 755 mmHg 35%
10:00 +17°C° 0 mm 3 m/s 755 mmHg 29%
11:00 +19°C° 0 mm 3 m/s 755 mmHg 22%
12:00 +21°C° 0 mm 3 m/s 754 mmHg 19%
13:00 +24°C° 0 mm 3 m/s 754 mmHg 16%
14:00 +25°C° 0 mm 3 m/s 753 mmHg 13%
15:00 +24°C° 0 mm 3 m/s 753 mmHg 14%
16:00 +22°C° 0 mm 3 m/s 753 mmHg 15%
17:00 +21°C° 0 mm 3 m/s 753 mmHg 16%
18:00 +19°C° 0 mm 3 m/s 753 mmHg 20%
19:00 +17°C° 0 mm 3 m/s 754 mmHg 24%
20:00 +14°C° 0 mm 3 m/s 754 mmHg 28%
21:00 +13°C° 0 mm 3 m/s 754 mmHg 31%
22:00 +12°C° 0 mm 3 m/s 754 mmHg 34%
23:00 +12°C° 0 mm 2 m/s 754 mmHg 37%
Mostrar mais

Necessitamos do seu Consentimento

A Meteoprog e os seus Fornecedores de Serviços podem armazenar e aceder a dados pessoais como cookies, identificadores do dispositivo ou outras tecnologias semelhantes existentes no seu dispositivo e processar estes dados para personalizar conteúdos e anúncios, assim como funcionalidades nas redes sociais e análise de tráfego.

  • Armazenar e/ou aceder a informações no seu dispositivo

    Os cookies, identificadores do dispositivo ou outras informações podem ser armazenados ou acedidos no seu dispositivo, para os fins acima indicados.

  • Anúncios e conteúdos personalizados, medição de anúncios e conteúdos, dados sobre o público-alvo e desenvolvimento de produtos

    Os anúncios e os conteúdos podem ser personalizados com base num perfil. Podem ser adicionados dados adicionais para uma maior personalização dos anúncios e dos conteúdos. A eficácia dos anúncios e dos conteúdos pode ser medida. Podem ser obtidas informações sobre o público que visualizou os anúncios e os conteúdos. Estes dados podem ser usados para desenvolver ou melhorar sistemas, softwares ou a experiência do utilizador.

Ao clicar em "Eu concordo”, permitirá o uso de cookies, identificadores do dispositivo e web beacons mencionados ou outras tecnologias semelhantes. As configurações do navegador do seu dispositivo podem ser alteradas.

Para certos fins, podem ser invocados interesses legítimos ao invés de consentimento. Pode ler mais informação sobre este assunto na nossa Política de Privacidade e Cookies.